This demonstration page uses our WeatherBlox Daily Observations layout. Learn more.

Left ArrowRight Arrow

39.92423, -83.80882

Hourly Observations for November 23, 2021

Temp ( °F °C ) Dew Point ( °F °C ) Humidity (%) Winds ( mph kmh ) Pressure ( in mb ) Visibility ( mi km ) Precip ( " mm )
12:56 am 00:56 Clear 23 -5 20 -6.7 88 88 W 7 11 30.21 1023 10 16 0.00 0.00
1:56 am 01:56 Mostly Clear 22 -5.6 19 -7.2 89 89 W 8 13 30.22 1023 10 16 0.00 0.00
2:56 am 02:56 Clear 22 -5.6 19 -7.2 89 89 W 8 13 30.22 1023 10 16 0.00 0.00
3:56 am 03:56 Clear 22 -5.6 19 -7.2 89 89 WSW 8 13 30.23 1024 10 16 0.00 0.00
4:56 am 04:56 Clear 21 -6.1 18 -7.8 88 88 WSW 7 11 30.23 1024 10 16 0.00 0.00
5:56 am 05:56 Clear 21 -6.1 18 -7.8 88 88 WSW 7 11 30.25 1025 10 16 0.00 0.00
6:56 am 06:56 Clear 20 -6.7 17 -8.3 89 89 WSW 3 6 30.27 1025 10 16 0.00 0.00
7:56 am 07:56 Sunny 20 -6.7 18 -7.8 92 92 WSW 5 7 30.29 1026 10 16 0.00 0.00
8:56 am 08:56 Sunny 26 -3.3 19 -7.2 75 75 W 6 9 30.30 1026 10 16 0.00 0.00
9:56 am 09:56 Sunny 29 -1.7 20 -6.7 69 69 WNW 6 9 30.30 1026 10 16 0.00 0.00
10:56 am 10:56 Sunny 32 0 20 -6.7 61 61 Calm 30.32 1027 10 16 0.00 0.00
11:56 am 11:56 Sunny 35 1.7 21 -6.1 57 57 W 6 9 30.31 1026 10 16 0.00 0.00
12:56 pm 12:56 Sunny 37 2.8 21 -6.1 52 52 W 12 19 30.29 1026 10 16 0.00 0.00
1:56 pm 13:56 Sunny 38 3.3 20 -6.7 48 48 WNW 9 15 30.29 1026 10 16 0.00 0.00
2:56 pm 14:56 Sunny 39 3.9 21 -6.1 48 48 VRB 5 7 30.28 1025 10 16 0.00 0.00
3:56 pm 15:56 Sunny 40 4.4 22 -5.6 49 49 WSW 6 9 30.29 1026 10 16 0.00 0.00
4:56 pm 16:56 Sunny 36 2.2 23 -5 59 59 WSW 5 7 30.29 1026 10 16 0.00 0.00
5:56 pm 17:56 Clear 34 1.1 20 -6.7 56 56 SSW 6 9 30.29 1026 10 16 0.00 0.00
6:56 pm 18:56 Clear 32 0 23 -5 69 69 SSW 3 6 30.29 1026 10 16 0.00 0.00
7:56 pm 19:56 Clear 32 0 22 -5.6 66 66 S 6 9 30.28 1026 10 16 0.00 0.00
8:56 pm 20:56 Clear 30 -1.1 22 -5.6 72 72 SSE 7 11 30.27 1025 10 16 0.00 0.00
9:56 pm 21:56 Clear 30 -1.1 21 -6.1 69 69 S 6 9 30.27 1025 10 16 0.00 0.00
10:56 pm 22:56 Clear 29 -1.7 21 -6.1 72 72 S 6 9 30.27 1025 10 16 0.00 0.00
11:56 pm 23:56 Clear 28 -2.2 21 -6.1 75 75 S 5 7 30.27 1025 10 16 0.00 0.00

Powered by AerisWeather